Saint Johns, AZ

7:20 AM MST on July 24, 2016 (GMT -0700)
Saint Johns Industrial

Weather History for KSJN - January, 2012

Change the Weather History Date:

Monday, January 30, 2012

  Actual Average (KSOW) Record (KSOW)
Temperature  
Mean Temperature 40 °F -  
Max Temperature 62 °F 44 °F 64 °F (1986)
Min Temperature 19 °F 26 °F -8 °F (1979)
Degree Days  
Heating Degree Days 24    
Moisture  
Dew Point 9 °F    
Average Humidity 35    
Maximum Humidity 63    
Minimum Humidity 11    
Precipitation  
Precipitation 0.00 in - - ()
Sea Level Pressure  
Sea Level Pressure 30.07 in    
Wind  
Wind Speed 5 mph (SW)    
Max Wind Speed 22 mph    
Max Gust Speed 30 mph    
Visibility 10 miles    
Events      
Averages and records for this station are not official NWS values.
T = Trace of Precipitation, MM = Missing Value Source: NWS Daily Summary

Daily Weather History Graph

Daily Weather History Graph

Search for Another Location

Airport or City:

Trip Planner

Search our weather history database for the weather conditions in past years. The results will help you decide how hot, cold, wet, or windy it might be!

Date:

Astronomy

Jan. 30, 2012 Rise Set
Actual Time 7:17 AM MST 5:44 PM MST
Civil Twilight 6:50 AM MST 6:11 PM MST
Nautical Twilight 6:20 AM MST 6:41 PM MST
Astronomical Twilight 5:50 AM MST 7:11 PM MST
Moon 11:03 AM MST (1/30) 12:11 AM MST (1/30)
Length of Visible Light 11h 20m
Length of Day
10h 27m
Waxing Crescent, 46% of the Moon is Illuminated
Jan 30
Waxing Crescent
Jan 30
First Quarter
Feb 7
Full
Feb 14
Last Quarter
Feb 21
New

Hourly Weather History & Observations

Time (MST) Temp. Windchill Dew Point Humidity Pressure Visibility Wind Dir Wind Speed Gust Speed Precip Events Conditions
12:54 AM 28.9 °F 21.9 °F 10.0 °F 45% 30.18 in 10.0 mi South 6.9 mph - N/A   Clear
1:54 AM 24.1 °F 18.2 °F 7.0 °F 48% 30.18 in 10.0 mi North 4.6 mph - N/A   Clear
2:54 AM 21.0 °F - 6.1 °F 53% 30.17 in 10.0 mi Calm Calm - N/A   Clear
3:54 AM 21.9 °F 17.2 °F 8.1 °F 55% 30.15 in 10.0 mi South 3.5 mph - N/A   Clear
4:54 AM 21.9 °F 17.2 °F 10.0 °F 60% 30.13 in 10.0 mi South 3.5 mph - N/A   Clear
5:54 AM 19.9 °F 13.4 °F 9.0 °F 62% 30.15 in 10.0 mi South 4.6 mph - N/A   Clear
6:54 AM 21.0 °F 16.2 °F 10.0 °F 63% 30.18 in 10.0 mi SSE 3.5 mph - N/A   Clear
7:54 AM 19.0 °F - 8.1 °F 62% 30.21 in 10.0 mi Calm Calm - N/A   Clear
8:54 AM 28.4 °F - 12.2 °F 51% 30.16 in 10.0 mi Calm Calm - N/A   Clear
9:54 AM 36.0 °F - 12.9 °F 39% 30.14 in 10.0 mi Calm Calm - N/A   Clear
10:54 AM 45.0 °F - 12.9 °F 27% 30.09 in 10.0 mi Calm Calm - N/A   Clear
11:54 AM 54.0 °F - 12.9 °F 20% 30.04 in 10.0 mi NNE 3.5 mph - N/A   Clear
12:54 PM 57.2 °F - 12.2 °F 17% 30.06 in 10.0 mi Calm Calm - N/A   Clear
1:54 PM 60.1 °F - 12.9 °F 16% 29.94 in 10.0 mi NW 5.8 mph - N/A   Clear
2:19 PM 62.6 °F - 6.8 °F 11% 30.01 in 10.0 mi WSW 12.7 mph 21.9 mph N/A   Clear
2:54 PM 62.1 °F - 7.0 °F 11% 29.93 in 10.0 mi WSW 15.0 mph 23.0 mph N/A   Clear
3:54 PM 61.0 °F - 9.0 °F 13% 29.93 in 10.0 mi SW 21.9 mph 26.5 mph N/A   Clear
4:54 PM 57.0 °F - 3.0 °F 11% 29.95 in 10.0 mi WSW 20.7 mph 29.9 mph N/A   Clear
5:54 PM 52.0 °F - 3.9 °F 14% 29.99 in 10.0 mi SW 12.7 mph - N/A   Clear
6:54 PM 45.0 °F 40.1 °F 7.0 °F 21% 30.04 in 10.0 mi WSW 9.2 mph - N/A   Clear
7:54 PM 43.0 °F 39.5 °F 10.0 °F 26% 30.07 in 10.0 mi SW 5.8 mph - N/A   Clear
8:54 PM 39.9 °F - 10.0 °F 29% 30.04 in 10.0 mi Calm Calm - N/A   Clear
9:54 PM 30.0 °F - 7.0 °F 38% 30.07 in 10.0 mi Calm Calm - N/A   Clear
10:54 PM 30.9 °F 22.8 °F 9.0 °F 40% 30.03 in 10.0 mi SE 9.2 mph - N/A   Clear
11:54 PM 33.1 °F 30.0 °F 8.1 °F 35% 30.00 in 10.0 mi Variable 3.5 mph - N/A   Clear